Powrót do katalogu

CZ-4 DEB

AktywnyPO
NORAD 26152·DEBRIS·🇨🇳 China

Wystrzelony Oct 14, 1999 z Taiyuan Satellite Launch Center

Loading…

Następne Przeloty (najbliższe 24 godziny)

TLE

ŚwieżeSource: Space-Track

Epoka: Sep 13, 2026, 23:15 UTC

1 26152U 99057AN  26256.96937412  .00000413  00000-0  38081-3 0  9999
2 26152  99.1375 256.6738 0520503  89.4555 304.8791 13.38580080289984

Śledź CZ-4 DEB w czasie rzeczywistym z AllMySat

Download on the App Store